When you browse on this site, cookies collect data to enhance your experience and personalize the content and advertising you see.
Visit our Privacy Policy to learn more. By continuing to use the site, you agree to this use of cookies and data.
  • In Germany
  • List of Countries
  • For 7 days
  • Water Temperature
  • Weather Map
  • Weather Widgets
  • user-avatar
    Login

    Hourly Weather Giumri

    Today, 23 September, Monday

    Time Temperature Precipitation Wind Pressure Humidity
    00:00 +8°C° 0 mm 1 mps 635 mmHg 69%
    01:00 +8°C° 0 mm 1 mps 635 mmHg 68%
    02:00 +7°C° 0 mm 1 mps 635 mmHg 67%
    03:00 +7°C° 0 mm 1 mps 635 mmHg 67%
    04:00 +7°C° 0 mm 1 mps 634 mmHg 65%
    05:00 +7°C° 0 mm 1 mps 634 mmHg 64%
    06:00 +7°C° 0 mm 1 mps 634 mmHg 62%
    07:00 +9°C° 0 mm 1 mps 635 mmHg 55%
    08:00 +12°C° 0 mm 1 mps 635 mmHg 47%
    09:00 +14°C° 0 mm 1 mps 636 mmHg 39%
    10:00 +15°C° 0 mm 2 mps 636 mmHg 36%
    11:00 +17°C° 0 mm 2 mps 636 mmHg 32%
    12:00 +18°C° 0 mm 3 mps 636 mmHg 29%
    13:00 +19°C° 0 mm 3 mps 636 mmHg 27%
    14:00 +20°C° 0 mm 3 mps 636 mmHg 26%
    15:00 +20°C° 0 mm 3 mps 636 mmHg 25%
    16:00 +19°C° 0 mm 2 mps 635 mmHg 29%
    17:00 +17°C° 0 mm 2 mps 635 mmHg 34%
    18:00 +15°C° 0 mm 1 mps 634 mmHg 39%
    19:00 +14°C° 0 mm 1 mps 634 mmHg 45%
    20:00 +13°C° 0 mm 2 mps 634 mmHg 52%
    21:00 +12°C° 0 mm 2 mps 634 mmHg 58%
    22:00 +10°C° 0 mm 2 mps 634 mmHg 60%
    23:00 +10°C° 0 mm 2 mps 634 mmHg 62%

    Tomorrow, 24 September, Tuesday

    Time Temperature Precipitation Wind Pressure Humidity
    00:00 +9°C° 0 mm 2 mps 634 mmHg 63%
    01:00 +10°C° 0 mm 1 mps 634 mmHg 64%
    02:00 +10°C° 0 mm 1 mps 634 mmHg 64%
    03:00 +9°C° 0 mm 1 mps 634 mmHg 64%
    04:00 +9°C° 0 mm 1 mps 633 mmHg 64%
    05:00 +9°C° 0 mm 1 mps 633 mmHg 64%
    06:00 +9°C° 0 mm 1 mps 633 mmHg 64%
    07:00 +11°C° 0 mm 1 mps 634 mmHg 57%
    08:00 +13°C° 0 mm 1 mps 635 mmHg 50%
    09:00 +16°C° 0 mm 1 mps 636 mmHg 42%
    10:00 +17°C° 0 mm 2 mps 636 mmHg 37%
    11:00 +19°C° 0 mm 2 mps 636 mmHg 31%
    12:00 +21°C° 0 mm 3 mps 636 mmHg 26%
    13:00 +21°C° 0 mm 3 mps 636 mmHg 24%
    14:00 +22°C° 0 mm 3 mps 636 mmHg 22%
    15:00 +22°C° 0 mm 3 mps 636 mmHg 20%
    16:00 +20°C° 0 mm 3 mps 635 mmHg 26%
    17:00 +18°C° 0 mm 3 mps 635 mmHg 32%
    18:00 +16°C° 0 mm 2 mps 634 mmHg 39%
    19:00 +15°C° 0 mm 2 mps 634 mmHg 46%
    20:00 +14°C° 0 mm 2 mps 634 mmHg 53%
    21:00 +13°C° 0 mm 2 mps 634 mmHg 60%
    22:00 +12°C° 0 mm 2 mps 633 mmHg 60%
    23:00 +12°C° 0 mm 1 mps 633 mmHg 59%

    Day after tomorrow, 25 September, Wednesday

    Time Temperature Precipitation Wind Pressure Humidity
    00:00 +12°C° 0 mm 1 mps 633 mmHg 59%
    01:00 +12°C° 0 mm 1 mps 633 mmHg 57%
    02:00 +12°C° 0 mm 1 mps 633 mmHg 56%
    03:00 +11°C° 0 mm 1 mps 633 mmHg 54%
    04:00 +11°C° 0 mm 1 mps 633 mmHg 54%
    05:00 +11°C° 0 mm 1 mps 633 mmHg 53%
    06:00 +11°C° 0 mm 1 mps 633 mmHg 53%
    07:00 +13°C° 0 mm 1 mps 634 mmHg 47%
    08:00 +15°C° 0 mm 1 mps 634 mmHg 40%
    09:00 +19°C° 0 mm 1 mps 635 mmHg 34%
    10:00 +20°C° 0 mm 2 mps 636 mmHg 29%
    11:00 +21°C° 0 mm 3 mps 636 mmHg 25%
    12:00 +23°C° 0 mm 4 mps 636 mmHg 21%
    13:00 +23°C° 0 mm 4 mps 636 mmHg 20%
    14:00 +25°C° 0 mm 5 mps 636 mmHg 19%
    15:00 +25°C° 0 mm 5 mps 636 mmHg 18%
    16:00 +23°C° 0 mm 4 mps 636 mmHg 22%
    17:00 +21°C° 0 mm 4 mps 635 mmHg 26%
    18:00 +19°C° 0 mm 3 mps 635 mmHg 31%
    19:00 +18°C° 0 mm 2 mps 635 mmHg 36%
    20:00 +17°C° 0 mm 2 mps 635 mmHg 41%
    21:00 +16°C° 0 mm 2 mps 635 mmHg 46%
    22:00 +15°C° 0 mm 2 mps 635 mmHg 47%
    23:00 +15°C° 0 mm 1 mps 634 mmHg 49%

    26 September, Thursday

    Time Temperature Precipitation Wind Pressure Humidity
    00:00 +15°C° 0 mm 1 mps 634 mmHg 50%
    01:00 +15°C° 0 mm 1 mps 634 mmHg 52%
    02:00 +15°C° 0 mm 1 mps 635 mmHg 54%
    03:00 +14°C° 0 mm 1 mps 635 mmHg 57%
    04:00 +14°C° 0 mm 1 mps 635 mmHg 57%
    05:00 +14°C° 0 mm 1 mps 634 mmHg 57%
    06:00 +13°C° 0 mm 1 mps 634 mmHg 57%
    07:00 +15°C° 0 mm 1 mps 635 mmHg 49%
    08:00 +18°C° 0 mm 2 mps 636 mmHg 41%
    09:00 +20°C° 0 mm 3 mps 637 mmHg 33%
    10:00 +21°C° 0 mm 4 mps 637 mmHg 29%
    11:00 +23°C° 0 mm 5 mps 637 mmHg 26%
    12:00 +24°C° 0 mm 7 mps 637 mmHg 22%
    13:00 +26°C° 0 mm 7 mps 637 mmHg 21%
    14:00 +26°C° 0 mm 7 mps 637 mmHg 20%
    15:00 +27°C° 0 mm 7 mps 637 mmHg 19%
    16:00 +25°C° 0 mm 5 mps 636 mmHg 26%
    17:00 +22°C° 0 mm 3 mps 635 mmHg 32%
    18:00 +20°C° 0 mm 2 mps 635 mmHg 38%
    19:00 +18°C° 0 mm 2 mps 634 mmHg 47%
    20:00 +17°C° 0 mm 2 mps 634 mmHg 55%
    21:00 +15°C° 0 mm 2 mps 634 mmHg 63%
    22:00 +15°C° 0 mm 2 mps 634 mmHg 63%
    23:00 +15°C° 0 mm 2 mps 634 mmHg 64%

    27 September, Friday

    Time Temperature Precipitation Wind Pressure Humidity
    00:00 +14°C° 0 mm 1 mps 634 mmHg 64%
    01:00 +14°C° 0 mm 1 mps 634 mmHg 64%
    02:00 +14°C° 0 mm 1 mps 634 mmHg 64%
    03:00 +13°C° 0 mm 1 mps 634 mmHg 63%
    04:00 +13°C° 0 mm 1 mps 634 mmHg 64%
    05:00 +13°C° 0 mm 1 mps 634 mmHg 64%
    06:00 +13°C° 0 mm 1 mps 634 mmHg 64%
    07:00 +15°C° 0 mm 1 mps 634 mmHg 57%
    08:00 +18°C° 0 mm 1 mps 635 mmHg 50%
    09:00 +20°C° 0 mm 1 mps 636 mmHg 44%
    10:00 +21°C° 0 mm 2 mps 636 mmHg 39%
    11:00 +24°C° 0 mm 3 mps 636 mmHg 34%
    12:00 +25°C° 0 mm 4 mps 637 mmHg 28%
    13:00 +26°C° 0 mm 4 mps 636 mmHg 27%
    14:00 +26°C° 0 mm 4 mps 636 mmHg 25%
    15:00 +27°C° 0 mm 5 mps 636 mmHg 23%
    16:00 +25°C° 0 mm 4 mps 635 mmHg 29%
    17:00 +24°C° 0 mm 3 mps 635 mmHg 35%
    18:00 +21°C° 0 mm 2 mps 634 mmHg 41%
    19:00 +19°C° 0 mm 2 mps 634 mmHg 48%
    20:00 +18°C° 0 mm 2 mps 634 mmHg 55%
    21:00 +17°C° 0 mm 2 mps 634 mmHg 62%
    22:00 +16°C° 0 mm 2 mps 634 mmHg 61%
    23:00 +16°C° 0 mm 1 mps 634 mmHg 61%

    28 September, Saturday

    Time Temperature Precipitation Wind Pressure Humidity
    00:00 +15°C° 0 mm 1 mps 634 mmHg 61%
    01:00 +15°C° 0 mm 1 mps 633 mmHg 59%
    02:00 +15°C° 0 mm 1 mps 633 mmHg 58%
    03:00 +14°C° 0 mm 1 mps 633 mmHg 57%
    04:00 +14°C° 0 mm 1 mps 633 mmHg 57%
    05:00 +14°C° 0 mm 1 mps 633 mmHg 58%
    06:00 +13°C° 0 mm 1 mps 633 mmHg 58%
    07:00 +15°C° 0 mm 2 mps 633 mmHg 52%
    08:00 +17°C° 0 mm 3 mps 634 mmHg 46%
    09:00 +20°C° 0 mm 3 mps 635 mmHg 40%
    10:00 +20°C° 0.1 mm 4 mps 635 mmHg 43%
    11:00 +20°C° 0.1 mm 4 mps 636 mmHg 46%
    12:00 +20°C° 0.1 mm 5 mps 636 mmHg 48%
    13:00 +20°C° 0.2 mm 4 mps 635 mmHg 48%
    14:00 +19°C° 0.2 mm 4 mps 635 mmHg 49%
    15:00 +19°C° 0.2 mm 3 mps 634 mmHg 49%
    16:00 +18°C° 0 mm 3 mps 634 mmHg 54%
    17:00 +16°C° 0 mm 3 mps 634 mmHg 59%
    18:00 +14°C° 0 mm 3 mps 634 mmHg 64%
    19:00 +14°C° 0 mm 2 mps 634 mmHg 67%
    20:00 +13°C° 0 mm 2 mps 634 mmHg 70%
    21:00 +12°C° 0 mm 2 mps 634 mmHg 73%
    22:00 +10°C° 0 mm 2 mps 634 mmHg 74%
    23:00 +10°C° 0 mm 2 mps 634 mmHg 75%
    Show more